H1 CPF 2 NER 2021 12 10 9 344 01 glonass122 H2 1004103 9122 37139 2021 12 10 0 0 0 2021 12 13 23 45 0 900 1 1 0 0 0 1 H9 10 0 59558 0.00000 0 5175112.308 -11992465.235 21912018.267 10 0 59558 900.00000 0 7722732.932 -12663652.963 20767191.400 10 0 59558 1800.00000 0 10056896.621 -13464261.681 19219613.537 10 0 59558 2700.00000 0 12128368.909 -14351203.960 17299736.674 10 0 59558 3600.00000 0 13898096.522 -15274309.040 15045125.684 10 0 59558 4500.00000 0 15338553.799 -16178501.774 12499709.043 10 0 59558 5400.00000 0 16434612.483 -17006195.674 9712916.260 10 0 59558 6300.00000 0 17183903.248 -17699799.923 6738719.181 10 0 59558 7200.00000 0 17596658.024 -18204236.479 3634595.652 10 0 59558 8100.00000 0 17695043.207 -18469363.640 460434.687 10 0 59558 9000.00000 0 17512014.101 -18452206.930 -2722597.179 10 0 59558 9900.00000 0 17089739.805 -18118906.328 -5853208.308 10 0 59558 10800.00000 0 16477664.669 -17446300.570 -8871133.303 10 0 59558 11700.00000 0 15730286.537 -16423083.902 -11718263.656 10 0 59558 12600.00000 0 14904743.062 -15050487.766 -14339738.465 10 0 59558 13500.00000 0 14058304.786 -13342458.711 -16684976.826 10 0 59558 14400.00000 0 13245877.397 -11325323.722 -18708634.317 10 0 59558 15300.00000 0 12517615.282 -9036954.482 -20371466.984 10 0 59558 16200.00000 0 11916744.367 -6525461.927 -21641087.512 10 0 59558 17100.00000 0 11477684.219 -3847471.211 -22492599.625 10 0 59558 18000.00000 0 11224547.925 -1066044.400 -22909098.222 10 0 59558 18900.00000 0 11170083.546 1751667.315 -22882024.599 10 0 59558 19800.00000 0 11315103.534 4536948.426 -22411368.030 10 0 59558 20700.00000 0 11648429.039 7222119.152 -21505707.226 10 0 59558 21600.00000 0 12147355.005 9743104.878 -20182087.726 10 0 59558 22500.00000 0 12778620.365 12041868.991 -18465734.117 10 0 59558 23400.00000 0 13499846.188 14068607.308 -16389599.122 10 0 59558 24300.00000 0 14261384.231 15783611.077 -13993755.018 10 0 59558 25200.00000 0 15008499.979 17158718.290 -11324636.398 10 0 59558 26100.00000 0 15683798.761 18178289.572 -8434147.114 10 0 59558 27000.00000 0 16229791.726 18839664.781 -5378647.807 10 0 59558 27900.00000 0 16591491.129 19153078.604 -2217843.861 10 0 59558 28800.00000 0 16718921.847 19141036.929 986403.138 10 0 59558 29700.00000 0 16569438.804 18837179.753 4171315.028 10 0 59558 30600.00000 0 16109747.821 18284679.321 7274460.490 10 0 59558 31500.00000 0 15317540.135 17534243.155 10235013.894 10 0 59558 32400.00000 0 14182667.883 16641809.460 12994981.273 10 0 59558 33300.00000 0 12707808.226 15666036.158 15500365.892 10 0 59558 34200.00000 0 10908586.754 14665693.784 17702247.520 10 0 59558 35100.00000 0 8813154.871 13697076.355 19557752.093 10 0 59558 36000.00000 0 6461240.004 12811542.759 21030891.572 10 0 59558 36900.00000 0 3902710.599 12053294.658 22093257.302 10 0 59558 37800.00000 0 1195718.614 11457485.501 22724554.203 10 0 59558 38700.00000 0 -1595500.139 11048739.820 22912967.122 10 0 59558 39600.00000 0 -4403073.431 10840143.375 22655354.626 10 0 59558 40500.00000 0 -7158084.121 10832743.751 21957269.494 10 0 59558 41400.00000 0 -9793197.111 11015578.765 20832808.665 10 0 59558 42300.00000 0 -12245212.748 11366227.534 19304298.813 10 0 59558 43200.00000 0 -14457442.194 11851857.150 17401826.572 10 0 59558 44100.00000 0 -16381808.681 12430717.585 15162625.070 10 0 59558 45000.00000 0 -17980590.831 13054019.376 12630330.639 10 0 59558 45900.00000 0 -19227739.693 13668113.631 9854125.390 10 0 59558 46800.00000 0 -20109719.090 14216882.202 6887782.789 10 0 59558 47700.00000 0 -20625838.412 14644238.193 3788634.650 10 0 59558 48600.00000 0 -20788067.738 14896633.171 616478.663 10 0 59558 49500.00000 0 -20620345.861 14925467.912 -2567553.870 10 0 59558 50400.00000 0 -20157411.933 14689307.869 -5702150.065 10 0 59558 51300.00000 0 -19443210.286 14155812.829 -8726967.357 10 0 59558 52200.00000 0 -18528934.674 13303301.803 -11583765.657 10 0 59558 53100.00000 0 -17470792.317 12121888.926 -14217500.467 10 0 59558 54000.00000 0 -16327579.059 10614143.110 -16577358.538 10 0 59558 54900.00000 0 -15158164.426 8795243.041 -18617718.449 10 0 59558 55800.00000 0 -14018988.998 6692619.082 -20299019.451 10 0 59558 56700.00000 0 -12961676.295 4345093.915 -21588523.218 10 0 59558 57600.00000 0 -12030857.122 1801553.733 -22460954.476 10 0 59558 58500.00000 0 -11262296.419 -880799.224 -22899007.937 10 0 59558 59400.00000 0 -10681400.968 -3638544.836 -22893710.809 10 0 59558 60300.00000 0 -10302171.578 -6404411.300 -22444632.038 10 0 59558 61200.00000 0 -10126645.775 -9109814.766 -21559931.694 10 0 59558 62100.00000 0 -10144857.298 -11687469.715 -20256246.428 10 0 59558 63000.00000 0 -10335317.493 -14073963.143 -18558409.739 10 0 59558 63900.00000 0 -10666001.858 -16212185.521 -16499008.952 10 0 59558 64800.00000 0 -11095803.325 -18053516.202 -14117784.187 10 0 59558 65700.00000 0 -11576393.349 -19559669.882 -11460878.143 10 0 59558 66600.00000 0 -12054413.479 -20704123.904 -8579949.363 10 0 59558 67500.00000 0 -12473904.710 -21473063.434 -5531165.186 10 0 59558 68400.00000 0 -12778870.345 -21865801.735 -2374094.096 10 0 59558 69300.00000 0 -12915861.144 -21894655.408 829479.651 10 0 59558 70200.00000 0 -12836469.532 -21584278.437 4016793.759 10 0 59558 71100.00000 0 -12499622.869 -20970482.912 7125370.790 10 0 59558 72000.00000 0 -11873574.242 -20098597.339 10094277.892 10 0 59558 72900.00000 0 -10937502.480 -19021434.241 12865355.001 10 0 59558 73800.00000 0 -9682650.378 -17796956.200 15384383.971 10 0 59558 74700.00000 0 -8112951.004 -16485742.801 17602172.595 10 0 59558 75600.00000 0 -6245114.695 -15148369.337 19475530.122 10 0 59558 76500.00000 0 -4108173.439 -13842811.405 20968113.872 10 0 59558 77400.00000 0 -1742503.256 -12621987.470 22051130.099 10 0 59558 78300.00000 0 801632.240 -11531544.389 22703876.242 10 0 59558 79200.00000 0 3465953.558 -10607979.162 22914115.665 10 0 59558 80100.00000 0 6186371.477 -9877174.625 22678280.002 10 0 59558 81000.00000 0 8895433.501 -9353408.066 22001498.153 10 0 59558 81900.00000 0 11524907.357 -9038870.841 20897454.508 10 0 59558 82800.00000 0 14008393.589 -8923715.048 19388082.419 10 0 59558 83700.00000 0 16283859.397 -8986620.983 17503101.803 10 0 59558 84600.00000 0 18295990.305 -9195857.432 15279412.394 10 0 59558 85500.00000 0 19998264.637 -9510786.876 12760356.445 10 0 59559 0.00000 0 21354668.099 -9883749.751 9994866.714 10 0 59559 900.00000 0 22340981.800 -10262247.363 7036515.305 10 0 59559 1800.00000 0 22945592.344 -10591330.885 3942485.524 10 0 59559 2700.00000 0 23169796.506 -10816097.414 772480.838 10 0 59559 3600.00000 0 23027588.964 -10884189.280 -2412405.693 10 0 59559 4500.00000 0 22544944.982 -10748193.915 -5550842.952 10 0 59559 5400.00000 0 21758628.980 -10367845.837 -8582414.139 10 0 59559 6300.00000 0 20714578.799 -9711940.473 -11448750.343 10 0 59559 7200.00000 0 19465932.048 -8759881.272 -14094626.004 10 0 59559 8100.00000 0 18070775.067 -7502796.103 -16468997.790 10 0 59559 9000.00000 0 16589705.867 -5944175.952 -18525969.252 10 0 59559 9900.00000 0 15083309.961 -4100007.889 -20225664.515 10 0 59559 10800.00000 0 13609651.594 -1998394.124 -21534995.595 10 0 59559 11700.00000 0 12221882.640 321330.561 -22428309.247 10 0 59559 12600.00000 0 10966067.305 2809950.555 -22887900.687 10 0 59559 13500.00000 0 9879312.636 5410138.869 -22904383.375 10 0 59559 14400.00000 0 8988283.217 8058575.491 -22476905.905 10 0 59559 15300.00000 0 8308163.487 10688330.772 -21613209.319 10 0 59559 16200.00000 0 7842113.330 13231418.247 -20329520.630 10 0 59559 17100.00000 0 7581242.614 15621412.987 -18650281.153 10 0 59559 18000.00000 0 7505108.949 17796027.317 -16607711.367 10 0 59559 18900.00000 0 7582720.796 19699536.096 -14241217.435 10 0 59559 19800.00000 0 7774006.200 21284948.585 -11596648.026 10 0 59559 20700.00000 0 8031686.839 22515833.281 -8725413.901 10 0 59559 21600.00000 0 8303478.657 23367715.981 -5683486.341 10 0 59559 22500.00000 0 8534525.102 23828988.959 -2530293.912 10 0 59559 23400.00000 0 8669957.772 23901289.918 672459.637 10 0 59559 24300.00000 0 8657472.648 23599332.543 3862031.134 10 0 59559 25200.00000 0 8449808.640 22950194.637 6975900.256 10 0 59559 26100.00000 0 8007018.937 21992094.081 9953030.030 10 0 59559 27000.00000 0 7298434.634 20772705.784 12735097.191 10 0 59559 27900.00000 0 6304233.699 19347093.294 15267664.793 10 0 59559 28800.00000 0 5016546.178 17775345.821 17501270.958 10 0 59559 29700.00000 0 3440047.291 16120024.136 19392410.193 10 0 59559 30600.00000 0 1592013.035 14443526.627 20904386.757 10 0 59559 31500.00000 0 -498163.223 12805489.516 22008022.992 10 0 59559 32400.00000 0 -2789971.117 11260332.593 22682209.608 10 0 59559 33300.00000 0 -5233256.356 9855054.339 22914288.788 10 0 59559 34200.00000 0 -7770102.207 8627368.371 22700265.062 10 0 59559 35100.00000 0 -10337038.420 7604257.306 22044842.760 10 0 59559 36000.00000 0 -12867483.624 6801001.479 20961292.538 10 0 59559 36900.00000 0 -15294318.358 6220719.151 19471152.737 10 0 59559 37800.00000 0 -17552481.666 5854432.942 17603774.409 10 0 59559 38700.00000 0 -19581484.327 5681655.136 15395721.362 10 0 59559 39600.00000 0 -21327736.219 5671463.142 12890038.924 10 0 59559 40500.00000 0 -22746593.979 5784016.610 10135406.947 10 0 59559 41400.00000 0 -23804047.295 5972450.033 7185194.055 10 0 59559 42300.00000 0 -24477977.337 6185060.170 4096431.451 10 0 59559 43200.00000 0 -24758938.625 6367696.200 928725.357 10 0 59559 44100.00000 0 -24650434.959 6466253.104 -2256872.290 10 0 59559 45000.00000 0 -24168680.358 6429165.168 -5399014.857 10 0 59559 45900.00000 0 -23341856.521 6209797.013 -8437213.848 10 0 59559 46800.00000 0 -22208898.177 5768633.966 -11312973.881 10 0 59559 47700.00000 0 -20817856.353 5075181.832 -13970890.470 10 0 59559 48600.00000 0 -19223906.170 4109497.733 -16359692.096 10 0 59559 49500.00000 0 -17487079.772 2863288.257 -18433208.882 10 0 59559 50400.00000 0 -15669816.009 1340528.279 -20151251.084 10 0 59559 51300.00000 0 -13834425.865 -442427.326 -21480381.932 10 0 59559 52200.00000 0 -12040576.347 -2457246.843 -22394570.669 10 0 59559 53100.00000 0 -10342895.357 -4664526.856 -22875713.050 10 0 59559 54000.00000 0 -8788795.780 -7015166.302 -22914008.398 10 0 59559 54900.00000 0 -7416608.968 -9452157.102 -22508184.179 10 0 59559 55800.00000 0 -6254106.049 -11912721.414 -21665561.267 10 0 59559 56700.00000 0 -5317470.310 -14330710.558 -20401955.574 10 0 59559 57600.00000 0 -4610765.940 -16639168.696 -18741414.478 10 0 59559 58500.00000 0 -4125928.243 -18772956.064 -16715789.634 10 0 59559 59400.00000 0 -3843278.644 -20671322.524 -14364151.089 10 0 59559 60300.00000 0 -3732545.462 -22280322.840 -11732051.203 10 0 59559 61200.00000 0 -3754349.430 -23554970.124 -8870650.619 10 0 59559 62100.00000 0 -3862092.174 -24461034.047 -5835722.199 10 0 59559 63000.00000 0 -4004167.522 -24976404.651 -2686552.249 10 0 59559 63900.00000 0 -4126400.445 -25091960.823 515238.301 10 0 59559 64800.00000 0 -4174607.504 -24811903.896 3706927.678 10 0 59559 65700.00000 0 -4097166.474 -24153540.281 6825954.925 10 0 59559 66600.00000 0 -3847481.915 -23146521.503 9811181.157 10 0 59559 67500.00000 0 -3386237.685 -21831574.299 12604122.075 10 0 59559 68400.00000 0 -2683336.898 -20258776.161 15150124.012 10 0 59559 69300.00000 0 -1719443.858 -18485451.956 17399457.348 10 0 59559 70200.00000 0 -487060.527 -16573783.709 19308303.575 10 0 59559 71100.00000 0 1008908.982 -14588237.842 20839615.329 10 0 59559 72000.00000 0 2751129.469 -12592921.389 21963832.170 10 0 59559 72900.00000 0 4710341.207 -10648980.758 22659438.836 10 0 59559 73800.00000 0 6846378.713 -8812153.515 22913356.717 10 0 59559 74700.00000 0 9109656.409 -7130575.892 22721163.241 10 0 59559 75600.00000 0 11443056.500 -5642936.396 22087137.839 10 0 59559 76500.00000 0 13784137.930 -4377050.071 21024136.762 10 0 59559 77400.00000 0 16067572.581 -3348909.326 19553302.389 10 0 59559 78300.00000 0 18227706.508 -2562246.534 17703615.679 10 0 59559 79200.00000 0 20201139.780 -2008621.868 15511303.028 10 0 59559 80100.00000 0 21929218.832 -1668028.110 13019111.113 10 0 59559 81000.00000 0 23360339.770 -1509982.902 10275465.155 10 0 59559 81900.00000 0 24451969.729 -1495059.423 7333527.559 10 0 59559 82800.00000 0 25172305.398 -1576789.095 4250175.197 10 0 59559 83700.00000 0 25501503.107 -1703855.431 1084914.367 10 0 59559 84600.00000 0 25432432.412 -1822487.033 -2101246.938 10 0 59559 85500.00000 0 24970924.393 -1878950.330 -5246949.457 10 0 59560 0.00000 0 24135506.172 -1822039.160 -8291635.590 10 0 59560 900.00000 0 22956633.008 -1605458.736 -11176686.769 10 0 59560 1800.00000 0 21475450.836 -1190006.207 -13846521.841 10 0 59560 2700.00000 0 19742137.983 -545457.956 -16249643.389 10 0 59560 3600.00000 0 17813893.867 347914.435 -18339610.120 10 0 59560 4500.00000 0 15752655.164 1498263.019 -20075920.146 10 0 59560 5400.00000 0 13622631.253 2901563.522 -21424789.357 10 0 59560 6300.00000 0 11487758.212 4541524.053 -22359810.644 10 0 59560 7200.00000 0 9409174.405 6390009.645 -22862481.165 10 0 59560 8100.00000 0 7442820.465 8407969.214 -22922586.659 10 0 59560 9000.00000 0 5637262.183 10546831.013 -22538433.667 10 0 59560 9900.00000 0 4031826.809 12750313.171 -21716922.734 10 0 59560 10800.00000 0 2655131.168 14956578.208 -20473458.107 10 0 59560 11700.00000 0 1524064.787 17100645.307 -18831692.271 10 0 59560 12600.00000 0 643272.987 19116961.956 -16823106.680 10 0 59560 13500.00000 0 5164.301 20942028.589 -14486433.505 10 0 59560 14400.00000 0 -409555.362 22516965.946 -11866926.646 10 0 59560 15300.00000 0 -630842.072 23789915.738 -9015494.133 10 0 59560 16200.00000 0 -697809.199 24718170.996 -5987707.607 10 0 59560 17100.00000 0 -656822.004 25269942.938 -2842708.083 10 0 59560 18000.00000 0 -559273.038 25425686.134 357969.541 10 0 59560 18900.00000 0 -459134.791 25178922.590 3551628.172 10 0 59560 19800.00000 0 -410396.654 24536527.155 6675669.480 10 0 59560 20700.00000 0 -464498.897 23518460.514 9668855.828 10 0 59560 21600.00000 0 -667876.897 22156960.584 12472544.839 10 0 59560 22500.00000 0 -1059724.014 20495227.387 15031868.839 10 0 59560 23400.00000 0 -1670071.582 18585658.923 17296832.880 10 0 59560 24300.00000 0 -2518270.074 16487715.369 19223307.524 10 0 59560 25200.00000 0 -3611937.288 14265504.844 20773895.529 10 0 59560 26100.00000 0 -4946418.288 11985195.610 21918655.022 10 0 59560 27000.00000 0 -6504779.088 9712366.166 22635665.729 10 0 59560 27900.00000 0 -8258332.607 7509406.161 22911428.760 10 0 59560 28800.00000 0 -10167672.327 5433077.693 22741094.493 10 0 59560 29700.00000 0 -12184167.669 3532338.254 22128517.001 10 0 59560 30600.00000 0 -14251855.917 1846514.178 21086137.160 10 0 59560 31500.00000 0 -16309649.413 403897.695 19634699.884 10 0 59560 32400.00000 0 -18293764.492 -779178.101 17802814.047 10 0 59560 33300.00000 0 -20140270.391 -1698752.510 15626366.184 10 0 59560 34200.00000 0 -21787652.306 -2363126.291 13147801.492 10 0 59560 35100.00000 0 -23179283.317 -2792235.850 10415287.446 10 0 59560 36000.00000 0 -24265704.444 -3016542.672 7481776.937 10 0 59560 36900.00000 0 -25006620.652 -3075487.499 4403989.129 10 0 59560 37800.00000 0 -25372532.779 -3015575.931 1241327.040 10 0 59560 38700.00000 0 -25345940.414 -2888176.451 -1945248.564 10 0 59560 39600.00000 0 -24922068.237 -2747122.797 -5094368.930 10 0 59560 40500.00000 0 -24109087.554 -2646220.074 -8145410.856 10 0 59560 41400.00000 0 -22927824.808 -2636757.311 -11039634.261 10 0 59560 42300.00000 0 -21410969.283 -2765128.699 -13721284.418 10 0 59560 43200.00000 0 -19601811.898 -3070661.245 -16138640.263 10 0 59560 44100.00000 0 -17552565.548 -3583738.417 -18244990.990 10 0 59560 45000.00000 0 -15322334.035 -4324297.642 -19999524.057 10 0 59560 45900.00000 0 -12974810.697 -5300764.952 -21368109.023 10 0 59560 46800.00000 0 -10575798.755 -6509472.853 -22323962.897 10 0 59560 47700.00000 0 -8190653.113 -7934588.424 -22848184.154 10 0 59560 48600.00000 0 -5881747.010 -9548558.329 -22930144.319 10 0 59560 49500.00000 0 -3706066.703 -11313056.540 -22567727.876 10 0 59560 50400.00000 0 -1713033.266 -13180399.901 -21767413.450 10 0 59560 51300.00000 0 57357.841 -15095376.973 -20544191.670 10 0 59560 52200.00000 0 1576000.818 -16997417.824 -18921317.847 10 0 59560 53100.00000 0 2825684.029 -18823017.006 -16929900.745 10 0 59560 54000.00000 0 3801590.505 -20508310.102 -14608331.987 10 0 59560 54900.00000 0 4511270.760 -21991696.180 -12001564.253 10 0 59560 55800.00000 0 4974086.547 -23216394.934 -9160250.160 10 0 59560 56700.00000 0 5220147.187 -24132828.613 -6139757.343 10 0 59560 57600.00000 0 5288782.460 -24700725.148 -2999078.787 10 0 59560 58500.00000 0 5226616.884 -24890849.897 200339.264 10 0 59560 59400.00000 0 5085328.481 -24686289.050 3395826.905 10 0 59560 60300.00000 0 4919189.745 -24083227.057 6524750.784 10 0 59560 61200.00000 0 4782498.691 -23091182.674 9525776.699 10 0 59560 62100.00000 0 4727013.181 -21732692.311 12340106.193 10 0 59560 63000.00000 0 4799501.664 -20042453.966 14912659.361 10 0 59560 63900.00000 0 5039518.065 -18065969.158 17193177.449 10 0 59560 64800.00000 0 5477498.326 -15857742.317 19137221.325 10 0 59560 65700.00000 0 6133261.240 -13479116.408 20707044.775 10 0 59560 66600.00000 0 7014977.835 -10995838.976 21872325.068 10 0 59560 67500.00000 0 8118652.461 -8475463.725 22610737.130 10 0 59560 68400.00000 0 9428136.021 -5984698.744 22908361.663 10 0 59560 69300.00000 0 10915668.475 -3586813.656 22759921.537 10 0 59560 70200.00000 0 12542925.096 -1339213.996 22168844.728 10 0 59560 71100.00000 0 14262519.726 708717.354 21147155.734 10 0 59560 72000.00000 0 16019899.427 2517424.157 19715200.800 10 0 59560 72900.00000 0 17755549.235 4058554.827 17901215.310 10 0 59560 73800.00000 0 19407413.716 5315861.505 15740744.367 10 0 59560 74700.00000 0 20913433.831 6285587.512 13275929.951 10 0 59560 75600.00000 0 22214094.004 6976331.923 10554679.892 10 0 59560 76500.00000 0 23254874.696 7408401.368 7629735.495 10 0 59560 77400.00000 0 23988510.441 7612679.756 4557655.977 10 0 59560 78300.00000 0 24376961.908 7629065.901 1397738.680 10 0 59560 79200.00000 0 24393022.581 7504545.948 -1789105.349 10 0 59560 80100.00000 0 24021495.700 7290981.667 -4941500.431 10 0 59560 81000.00000 0 23259894.474 7042706.615 -7998760.027 10 0 59560 81900.00000 0 22118637.726 6814029.421 -10902025.532 10 0 59560 82800.00000 0 20620733.131 6656746.804 -13595370.643 10 0 59560 83700.00000 0 18800960.497 6617768.445 -16026852.723 10 0 59560 84600.00000 0 16704587.270 6736951.280 -18149493.294 10 0 59560 85500.00000 0 14385666.999 7045232.627 -19922170.767 10 0 59561 0.00000 0 11904988.284 7563139.811 -21310409.637 10 0 59561 900.00000 0 9327754.268 8299739.638 -22287052.443 10 0 59561 1800.00000 0 6721088.635 9252072.708 -22832799.766 10 0 59561 2700.00000 0 4151463.769 10405100.087 -22936609.585 10 0 59561 3600.00000 0 1682158.377 11732167.694 -22595944.693 10 0 59561 4500.00000 0 -629152.845 13195973.592 -21816861.811 10 0 59561 5400.00000 0 -2732577.817 14750002.239 -20613937.559 10 0 59561 6300.00000 0 -4587862.880 16340369.905 -19010029.275 10 0 59561 7200.00000 0 -6165846.900 17908007.464 -17035871.775 10 0 59561 8100.00000 0 -7449450.776 19391091.480 -14729514.478 10 0 59561 9000.00000 0 -8434158.341 20727622.572 -12135606.796 10 0 59561 9900.00000 0 -9127965.717 21858042.259 -9304543.552 10 0 59561 10800.00000 0 -9550799.121 22727776.329 -6291485.734 10 0 59561 11700.00000 0 -9733424.130 23289594.559 -3155275.457 10 0 59561 12600.00000 0 -9715892.097 23505683.433 42732.667 10 0 59561 13500.00000 0 -9545590.257 23349340.223 3239898.960 10 0 59561 14400.00000 0 -9274980.199 22806212.930 6373558.090 10 0 59561 15300.00000 0 -8959123.669 21875030.398 9382282.262 10 0 59561 16200.00000 0 -8653104.535 20567789.523 12207119.796 10 0 59561 17100.00000 0 -8409460.459 18909390.639 14792781.231 10 0 59561 18000.00000 0 -8275737.260 16936736.822 17088746.483 10 0 59561 18900.00000 0 -8292273.118 14697336.592 19050268.948 10 0 59561 19800.00000 0 -8490308.987 12247471.214 20639255.379 10 0 59561 20700.00000 0 -8890506.547 9650006.598 21825003.799 10 0 59561 21600.00000 0 -9501936.366 6971944.554 22584785.593 10 0 59561 22500.00000 0 -10321577.904 4281818.499 22904261.913 10 0 59561 23400.00000 0 -11334350.264 1647044.364 22777728.541 10 0 59561 24300.00000 0 -12513669.646 -868662.066 22208187.295 10 0 59561 25200.00000 0 -13822506.930 -3207694.300 21207245.734 10 0 59561 26100.00000 0 -15214897.977 -5320692.229 19794850.350 10 0 59561 27000.00000 0 -16637840.673 -7168321.253 17998861.449 10 0 59561 27900.00000 0 -18033497.401 -8722623.459 15854480.645 10 0 59561 28800.00000 0 -19341609.676 -9967889.098 13403544.218 10 0 59561 29700.00000 0 -20502023.954 -10901016.959 10693697.519 10 0 59561 30600.00000 0 -21457223.945 -11531353.314 7777467.170 10 0 59561 31500.00000 0 -22154765.276 -11880020.166 4711249.168 10 0 59561 32400.00000 0 -22549513.146 -11978764.200 1554231.823 10 0 59561 33300.00000 0 -22605592.086 -11868376.674 -1632726.933 10 0 59561 34200.00000 0 -22297968.999 -11596751.395 -4788247.833 10 0 59561 35100.00000 0 -21613605.612 -11216661.943 -7851584.278 10 0 59561 36000.00000 0 -20552133.799 -10783350.158 -10763762.277 10 0 59561 36900.00000 0 -19126026.277 -10352025.067 -13468686.921 10 0 59561 37800.00000 0 -17360255.169 -9975374.846 -15914196.712 10 0 59561 38700.00000 0 -15291451.140 -9701193.769 -18053047.901 10 0 59561 39600.00000 0 -12966595.616 -9570221.672 -19843811.837 10 0 59561 40500.00000 0 -10441297.110 -9614285.187 -21251669.649 10 0 59561 41400.00000 0 -7777719.307 -9854818.306 -22249089.814 10 0 59561 42300.00000 0 -5042242.919 -10301825.076 -22816375.603 10 0 59561 43200.00000 0 -2302954.343 -10953329.806 -22942071.129 10 0 59561 44100.00000 0 372938.055 -11795340.859 -22623216.582 10 0 59561 45000.00000 0 2921655.247 -12802333.316 -21865445.347 10 0 59561 45900.00000 0 5285261.957 -13938234.557 -20682918.149 10 0 59561 46800.00000 0 7413844.057 -15157875.701 -19098092.085 10 0 59561 47700.00000 0 9267357.338 -16408851.774 -17141325.463 10 0 59561 48600.00000 0 10817068.712 -17633715.439 -14850322.670 10 0 59561 49500.00000 0 12046527.121 -18772413.761 -12269426.841 10 0 59561 50400.00000 0 12952020.643 -19764865.717 -9448771.845 10 0 59561 51300.00000 0 13542498.022 -20553570.671 -6443308.763 10 0 59561 52200.00000 0 13838955.928 -21086135.289 -3311725.546 10 0 59561 53100.00000 0 13873316.644 -21317608.626 -115281.927 10 0 59561 54000.00000 0 13686843.741 -21212522.637 3083415.775 10 0 59561 54900.00000 0 13328164.089 -20746547.560 6221673.183 10 0 59561 55800.00000 0 12850982.522 -19907688.351 9237971.568 10 0 59561 56700.00000 0 12311589.427 -18696968.593 12073208.351 10 0 59561 57600.00000 0 11766270.969 -17128571.046 14671886.466 10 0 59561 58500.00000 0 11268735.781 -15229428.391 16983226.032 10 0 59561 59400.00000 0 10867670.937 -13038282.063 18962174.063 10 0 59561 60300.00000 0 10604533.613 -10604250.540 20570290.952 10 0 59561 61200.00000 0 10511673.732 -7984969.828 21776495.723 10 0 59561 62100.00000 0 10610867.479 -5244386.952 22557656.055 10 0 59561 63000.00000 0 10912322.900 -2450301.547 22899013.023 10 0 59561 63900.00000 0 11414197.603 328239.431 22794434.456 10 0 59561 64800.00000 0 12102646.134 3023583.916 22246494.865 10 0 59561 65700.00000 0 12952391.710 5572043.609 21266383.484 10 0 59561 66600.00000 0 13927794.846 7916283.596 19873645.470 10 0 59561 67500.00000 0 14984370.779 10007435.658 18095764.314 10 0 59561 68400.00000 0 16070689.409 11806850.756 15967596.267 10 0 59561 69300.00000 0 17130576.284 13287421.894 13530669.925 10 0 59561 70200.00000 0 18105521.547 14434426.973 10832366.065 10 0 59561 71100.00000 0 18937196.152 15245861.215 7924994.433 10 0 59561 72000.00000 0 19569971.047 15732249.580 4864785.514 10 0 59561 72900.00000 0 19953335.760 15915950.731 1710816.205 10 0 59561 73800.00000 0 20044117.471 15829984.304 -1476111.085 10 0 59561 74700.00000 0 19808410.269 15516432.097 -4634615.917 10 0 59561 75600.00000 0 19223136.220 15024480.507 -7703893.970 10 0 59561 76500.00000 0 18277174.792 14408185.487 -10624858.087 10 0 59561 77400.00000 0 16972014.529 13724052.035 -13341246.789 10 0 59561 78300.00000 0 15321899.736 13028527.398 -15800681.558 10 0 59561 79200.00000 0 13353464.965 12375510.499 -17955654.985 10 0 59561 80100.00000 0 11104870.342 11813979.548 -19764432.756 10 0 59561 81000.00000 0 8624470.531 11385835.242 -21191853.728 10 0 59561 81900.00000 0 5969068.710 11124048.757 -22210013.574 10 0 59561 82800.00000 0 3201823.869 11051191.946 -22798818.916 10 0 59561 83700.00000 0 389893.902 11178412.301 -22946400.575 10 0 59561 84600.00000 0 -2398091.649 11504897.702 -22649376.438 10 0 59561 85500.00000 0 -5094627.464 12017856.448 -21912956.497 99